Location: Baumgarten
(49.0970°N, 12.7493°E)
Time: 18:00:50
(UTC+00:00)

Daily predictions for brighter satellites

Satellite Brightness Start Highest point End
(mag) Time Altitude Azimuth Time Altitude Azimuth Time Altitude Azimuth
USA 267 3.9 19:50:04 10° E 19:56:26 55° NNE 20:02:48 10° WNW
Meteor 1-21 Rocket 4.4 19:50:55 10° S 19:56:49 78° E 20:02:46 10° NNE
SPOT 1/Viking Rocket 3.8 19:52:15 10° SSE 19:57:16 56° ENE 20:02:20 10° N
Alouette 2 Rocket 3.8 19:56:55 10° N 20:00:36 55° ENE 20:05:25 10° SSE
Cosmos 1953 Rocket 4.4 19:57:11 10° SSE 20:01:02 32° E 20:04:53 10° NNE
Cosmos 2322 Rocket 2.6 19:56:47 10° SW 20:02:22 71° WNW 20:08:01 10° NNE
SL-08 ROCKET BODY 4.4 19:57:16 10° S 20:03:13 84° E 20:09:19 10° N
NOSS 7 (D) 3.7 20:01:37 10° SSW 20:04:25 66° SE 20:07:05 10° NE
Cosmos 2237 4.2 19:59:22 10° SSW 20:05:05 74° ESE 20:10:50 10° NNE
Cosmos 2084 4.4 20:02:24 10° NW 20:06:42 43° NE 20:10:56 10° ESE
Cosmos 1328 4.0 20:03:28 10° S 20:07:19 52° E 20:11:12 10° NNE
SAR-Lupe-2 4.2 20:06:13 10° NNE 20:09:35 36° E 20:12:55 10° SSE
Cosmos 1455 2.6 20:07:54 10° NNW 20:11:44 64° W 20:15:32 10° S
Cosmos 1825 Rocket 3.6 20:12:15 10° S 20:16:39 69° E 20:21:06 10° NNE
ATLAS CENTAUR R/B 1.8 20:15:12 10° NNW 20:18:47 44° NE 20:22:16 10° ESE
Cosmos 1703 3.2 20:17:21 10° S 20:21:14 84° E 20:25:08 10° N
COSMOS 2428 3.4 20:17:19 10° S 20:22:20 34° ESE 20:27:24 10° NE
Cosmos 1844 3.8 20:18:08 10° NNW 20:23:56 80° WSW 20:29:32 11° SSE
Cosmos 2322 3.8 20:20:33 10° S 20:26:08 58° ESE 20:31:45 10° NE
CZ-4B DEB 4.3 20:28:15 11° SSE 20:31:24 88° ENE 20:34:47 10° NNW
Cosmos 1709 Rocket 4.0 20:26:32 10° S 20:32:49 80° E 20:39:12 10° NNE
NOSS 3-3 (A) 4.3 20:29:12 10° S 20:34:40 43° ESE 20:40:47 10° NE
NOSS 3-3 (C) 4.3 20:29:19 10° S 20:34:47 42° ESE 20:40:53 10° NE
Terra 2.2 20:31:40 13° SE 20:35:50 54° ENE 20:40:30 10° N
Cosmos 2237 Rocket 3.7 20:33:12 12° SE 20:36:16 18° E 20:40:03 10° ENE
Atlas Centaur 2 4.1 20:33:02 10° SSW 20:36:19 14° S 20:38:47 12° SSE
CARTOSAT-1 3.5 20:32:57 12° SSE 20:36:59 83° ENE 20:41:19 10° NNW
Cosmos 2333 4.2 20:32:19 10° SSW 20:37:55 68° ESE 20:43:36 10° NNE
Cosmos 2219 Rocket 2.4 20:32:58 10° S 20:38:20 49° ESE 20:43:43 10° NE
IGS 5A 4.3 20:36:14 10° S 20:40:15 47° W 20:44:18 10° NNW
Cosmos 2360 Rocket 2.6 20:34:39 10° SW 20:40:16 68° WNW 20:45:57 10° NNE
Cosmos 1538 Rocket 4.3 20:36:02 10° S 20:41:10 49° ESE 20:46:18 10° NNE
Cosmos 2333 Rocket 2.3 20:42:30 10° SSW 20:48:06 62° ESE 20:53:45 10° NE
Cosmos 1315 Rocket 2.9 20:46:58 10° N 20:51:05 76° ENE 20:54:13 17° SSE
ATLAS 2AS CENTAUR R/B 3.6 20:44:06 10° NW 20:51:38 51° NE 20:58:32 10° ESE
Resurs 01 Rocket 4.0 20:49:21 10° SW 20:52:23 18° W 20:55:26 10° NW
Cosmos-2242 4.2 20:50:22 10° NNW 20:54:26 40° W 20:58:30 10° SSW
Cosmos 1818 4.1 20:50:20 10° SW 20:55:43 63° NW 21:01:09 10° NE
Cosmos 773 Rocket 4.1 20:52:49 10° SSW 20:58:08 85° WNW 21:03:28 10° NNE
Cosmos 2221 2.8 20:55:13 10° N 20:59:33 54° ENE 21:02:29 19° SSE
SL-16 R/B 4.5 20:54:49 10° WSW 20:59:40 28° NW 21:04:33 10° NNE
ERS-1 Rocket 3.4 20:56:51 12° S 21:01:28 60° WSW 21:06:29 10° NNW
GEOS 3 Rocket 3.9 20:57:13 10° NE 21:02:37 77° NW 21:08:00 10° SW
USA 215 3.2 20:59:22 10° ENE 21:05:55 66° SE 21:12:25 10° SW
Cosmos 1892 3.6 21:07:02 21° SE 21:08:48 32° E 21:12:13 10° NNE
Cosmos 2278 Rocket 2.4 21:03:15 10° NNW 21:08:56 68° ENE 21:13:09 18° SE
ATLAS 5 CENTAUR R/B 2.6 21:08:18 10° WSW 21:12:26 51° NW 21:17:09 10° NE
Cosmos 1844 Rocket 4.1 21:08:39 10° NW 21:13:21 28° WSW 21:18:01 10° SSW
Gblst 52 Del rocket 4.3 21:09:40 10° WNW 21:15:21 70° SSW 21:20:33 16° SE
Cosmos 1943 Rocket 4.4 21:12:27 10° N 21:16:24 19° NE 21:20:19 10° E
SPOT 5 3.6 21:13:56 13° S 21:18:14 49° W 21:22:55 10° NNW
SL-16 R/B 3.9 21:18:55 13° ESE 21:20:41 15° E 21:23:50 10° ENE
Lacrosse 5 rocket 3.5 21:17:46 10° WNW 21:21:20 26° N 21:24:43 10° ENE
Cosmos 2056 Rocket 4.5 21:18:36 10° NNW 21:23:42 40° ENE 21:27:39 16° ESE
Nadezhda 3 Rocket 4.3 21:18:29 10° N 21:24:49 60° ENE 21:29:11 21° SSE
Cosmos 2058 3.1 21:25:00 24° SSE 21:27:14 53° E 21:31:17 10° NNE
Cosmos 2154 Rocket 4.2 21:23:04 20° SSE 21:27:19 54° E 21:33:21 10° NNE
BREEZE M DEB (TANK) 4.0 21:26:51 10° WSW 21:27:38 13° SW 21:27:38 13° SW
Cosmos 1408 3.4 21:29:06 26° SE 21:30:16 33° E 21:33:32 10° NNE
Meteor 2-17 Rocket 4.4 21:27:25 18° S 21:32:04 73° E 21:38:07 10° NNE
In-Cosmos 22 Rocket 4.1 21:29:55 20° S 21:33:38 69° E 21:38:56 10° NNE
Cosmos 2074 Rocket 4.0 21:29:15 15° S 21:34:36 89° W 21:40:52 10° N
TSX-5 3.6 21:32:08 10° NW 21:35:36 79° WSW 21:37:36 28° SSE
Cosmos 1076 Rocket 3.6 21:36:08 26° S 21:38:26 63° E 21:42:41 10° NNE
Cosmos 1680 Rocket 3.8 21:35:41 22° S 21:38:57 52° ESE 21:44:07 10° NNE
USA 267 3.2 21:34:04 17° SE 21:39:18 76° SW 21:45:54 10° WNW
CZ-4C R/B 4.4 21:38:59 10° NW 21:44:49 32° NNE 21:51:33 10° E
Cosmos 2084 4.5 21:42:06 10° WNW 21:46:09 35° WSW 21:48:05 24° SSW
Cosmos 1842 Rocket 4.4 21:42:07 10° NNW 21:46:16 43° W 21:49:02 19° SSW
COSMOS 2455 4.3 21:43:22 10° NNW 21:48:49 33° NE 21:54:13 10° ESE
Cosmos 2151 3.8 21:47:18 26° SE 21:48:57 36° E 21:52:52 10° NNE
EO 1 Delta rocket 4.5 21:44:22 10° NNE 21:49:19 56° E 21:52:50 24° SSE
Cosmos 923 Rocket 4.0 21:52:20 17° SSW 21:56:27 90° W 22:01:47 10° NNE
Cosmos 2327 Rocket 4.5 21:52:14 19° S 21:56:48 88° W 22:02:58 10° N
ATLAS CENTAUR R/B 2.7 21:54:35 10° WNW 21:57:24 21° WSW 21:58:26 19° SW
Cosmos 1825 2.5 21:58:09 35° SSE 21:59:22 50° E 22:03:03 10° NNE
ALOS 2 3.3 21:58:03 24° SE 22:00:16 45° ENE 22:04:28 10° N
Cosmos 2369 Rocket 4.0 21:56:32 10° N 22:01:03 24° NE 22:05:33 10° E
Cosmos 1151 Rocket 4.1 21:57:14 10° N 22:01:12 33° ENE 22:03:13 22° ESE
Cosmos 1980 3.6 21:56:55 17° SSW 22:01:20 81° ESE 22:07:00 10° NNE
Cosmos 44 4.0 22:05:15 27° SE 22:05:48 28° ESE 22:09:34 10° ENE
COSMOS 2428 3.7 22:01:00 10° SW 22:06:28 47° NW 22:11:58 10° NNE
Cosmos 371 Rocket 4.2 22:04:11 10° NNW 22:08:49 42° ENE 22:11:47 20° ESE
GP-B 3.8 22:05:24 10° NNE 22:09:38 42° E 22:11:23 28° SE
Cosmos 1295 Rocket 4.4 22:06:31 23° S 22:10:30 86° E 22:16:38 10° N
NOSS 0 Rocket 4.1 22:07:37 10° SW 22:13:47 76° WNW 22:20:00 10° NNE
Terra 3.7 22:10:34 11° SW 22:13:55 21° W 22:17:31 10° NW
Cosmos 1624 Rocket 3.9 22:09:02 10° NNW 22:14:18 87° WSW 22:16:57 30° SSE
NOSS 3-4 (A) 3.9 22:08:01 10° NW 22:14:56 71° SW 22:19:47 24° SSE
NOSS 3-4 (C) 3.9 22:08:07 10° NW 22:15:03 72° SW 22:19:55 24° SSE
SL-4 R/B 2.8 22:19:54 18° NE 22:19:54 18° NE 22:21:08 10° NNE
Cosmos 2237 Rocket 2.3 22:14:58 16° SSW 22:19:37 82° WNW 22:25:23 10° NNE
Genesis I 3.1 22:18:36 32° SSW 22:20:19 76° SE 22:24:14 10° NE
CREW DRAGON DEMO-1 DEB 4.2 22:22:53 26° E 22:22:53 26° E 22:24:31 10° ENE
Cosmos 2344 3.5 22:16:02 15° SSW 22:22:21 68° SE 22:30:23 10° NE
Cosmos 2219 Rocket 3.7 22:17:24 10° WSW 22:22:28 34° NW 22:27:36 10° NNE
Cosmos 1346 Rocket 4.3 22:28:04 21° ESE 22:28:56 23° E 22:32:04 10° NE
Thor Agena Rocket 3.7 22:24:57 10° N 22:30:03 68° WNW 22:33:18 22° SSW
DELTA 2 R/B (1) 4.3 22:25:46 10° SW 22:36:22 - ESE 22:30:03 30° S
Cosmos 2333 Rocket 4.1 22:27:50 10° WSW 22:32:47 29° NW 22:37:47 10° NNE
Cosmos 1515 Rocket 4.1 22:37:13 10° N 22:41:27 49° ENE 22:43:15 30° SE
BREEZE-M DEB (TANK) 2.0 22:38:38 10° W 22:41:22 41° WSW 22:41:22 41° WSW
ATLAS 2AS CENTAUR R/B 3.1 22:35:27 10° NW 22:42:45 54° WSW 22:46:25 28° S
EO 1 Del DPAF 4.1 22:39:34 10° N 22:43:10 43° WNW 22:45:00 24° SW
Cosmos 1766 Rocket 3.5 22:44:24 37° S 22:46:07 89° WNW 22:50:33 10° N
Gbstr 26 Del rocket 3.9 22:49:28 27° ESE 22:49:28 27° ESE 22:52:18 10° E
Cosmos 1328 Rocket 3.4 22:44:33 10° N 22:48:54 87° WSW 22:50:25 40° S
USA 215 3.9 22:42:28 10° ENE 22:48:55 59° NNW 22:55:19 10° W
Okean 3 Rocket 3.6 22:47:02 34° SSW 22:48:57 74° WNW 22:53:24 10° N
Aureole 2 Rocket 2.5 22:46:21 10° NW 22:48:59 46° WSW 22:48:59 46° WSW
Cosmos 1606 2.9 22:47:22 10° NNW 22:51:13 62° W 22:52:19 41° SSW
Cosmos 2278 Rocket 3.8 22:48:12 10° NW 22:52:29 22° WSW 22:54:59 17° SW
Cosmos 2218 Rocket 4.0 22:50:54 29° S 22:54:25 83° E 23:00:45 10° N
Cosmos 2297 3.8 22:48:45 10° NNW 22:54:28 68° WSW 22:57:11 32° S
Cosmos 304 Rocket 4.3 22:50:35 10° NNW 22:55:20 53° ENE 22:58:03 24° SE
Cosmos 864 Rocket 4.5 22:52:05 29° S 22:55:26 79° E 23:01:45 10° NNE
Cosmos 2228 Rocket 4.0 22:52:45 10° N 22:57:07 41° ENE 22:59:19 25° SE
Cosmos 1420 Rocket 4.0 22:52:59 10° NNW 22:58:15 71° WSW 23:00:36 33° S
Cosmos 2366 rocket 4.0 22:56:35 29° S 23:00:06 87° E 23:06:30 10° N
Cosmos 1943 Rocket 2.3 22:55:29 10° NNW 23:01:12 73° ENE 23:04:40 24° SE
Lacrosse 5 rocket 2.4 22:57:22 10° NW 23:01:15 43° NNE 23:04:54 10° E
Cosmos 1633 3.1 23:01:11 40° SE 23:01:53 45° E 23:05:22 10° NNE
Landsat 4 4.3 22:59:31 10° NNE 23:03:10 44° E 23:03:59 38° SE
SL-16 R/B 2.1 23:00:47 28° SSW 23:03:55 87° ESE 23:09:40 10° NNE
Cosmos 2056 Rocket 4.5 23:00:54 10° NW 23:05:47 36° WSW 23:07:58 26° SW
Cosmos 1959 Rocket 4.5 23:06:20 28° SSW 23:09:45 80° W 23:15:59 10° N
YAOGAN 11 4.0 23:09:09 38° SSE 23:10:49 88° ENE 23:15:16 10° NNW
Cosmos 1743 Rocket 3.8 23:12:36 37° SSE 23:14:02 56° E 23:18:18 10° NNE
Cosmos 332 Rocket 3.8 23:14:51 10° NNW 23:19:38 69° WSW 23:21:28 37° S
Cosmos 1048 Rocket 4.3 23:19:32 33° S 23:21:44 56° ESE 23:26:53 10° NNE
USA 267 4.3 23:21:25 23° SSW 23:23:01 25° SW 23:28:17 10° WNW
Meteor 2-3 Rocket 3.8 23:21:02 30° SSW 23:23:57 76° WNW 23:29:42 10° N
Helios 1A 3.3 23:24:53 38° SSW 23:26:06 52° W 23:30:11 10° NNW
Cosmos 405 2.9 23:24:54 10° NNW 23:28:27 76° W 23:29:08 54° S
Meteor 1-29 4.4 23:25:42 10° NE 23:28:35 25° E 23:29:10 24° ESE
Cosmos 1452 Rocket 3.8 23:27:52 10° NNW 23:33:01 54° WSW 23:35:06 33° SSW
CZ-4C R/B 3.1 23:27:26 10° NW 23:34:28 75° NE 23:42:40 10° SE
Meteor 2-6 Rocket 4.2 23:29:26 10° N 23:34:58 75° ENE 23:37:54 28° SSE
PSLV R/B 3.6 23:30:53 10° NNE 23:35:06 66° ESE 23:36:34 38° S
COSMOS 2455 2.9 23:29:12 10° NW 23:35:12 66° WSW 23:38:24 28° SSE
Cosmos 1340 3.6 23:34:23 29° WSW 23:35:41 39° WNW 23:39:16 10° N
ALOS 2 4.2 23:35:27 19° WSW 23:36:49 22° W 23:40:15 10° NW
Cosmos 1110 Rocket 4.1 23:31:44 10° NNW 23:37:02 74° ENE 23:40:16 24° SSE
Cosmos 1408 Rocket 4.3 23:35:56 28° SW 23:37:48 45° WNW 23:42:04 10° N
SL-16 R/B 3.9 23:32:40 10° ESE 23:38:11 35° ENE 23:43:45 10° N
Cosmos 1151 Rocket 4.4 23:35:01 10° NNW 23:38:39 26° W 23:40:03 22° WSW
Cosmos 1603 4.1 23:36:25 30° SSE 23:38:56 50° ESE 23:44:26 10° NE
Cosmos 1727 Rocket 4.3 23:38:46 10° NNW 23:44:49 54° W 23:48:04 27° SSW
APEX 4.3 23:42:54 10° NW 23:44:21 21° W 23:44:21 21° W
Resurs 1-4 Rocket 3.9 23:41:24 10° NE 23:45:26 21° E 23:48:45 13° SE
Cosmos 2369 Rocket 2.1 23:40:06 10° NNW 23:45:42 77° WSW 23:48:49 27° SSE
Cosmos 1500 Rocket 3.6 23:44:49 36° SSW 23:46:31 72° W 23:50:56 10° N
Cosmos 44 4.0 23:43:38 16° WSW 23:46:48 45° NW 23:51:07 10° NNE
Cosmos 371 Rocket 4.5 23:44:56 10° NW 23:49:03 28° W 23:50:25 24° SW
SeaSat 1 3.8 23:45:13 10° NE 23:49:22 26° ESE 23:51:20 20° SE
ISS -1.7 23:51:00 17° ESE 23:51:00 17° ESE 23:52:27 10° E
Helios 1B rocket 2.4 23:49:44 10° NNE 23:53:54 85° ESE 23:55:23 39° S
